Regional Weather Roundup
Issued by NWS Raleigh/Durham, NC

Home | Current Version | Previous Version | Text Only | Print | Product List | Glossary On
Versions: 1 2 3 4 5 6 7 8 9 10 11 12 13 14 15 16 17 18 19 20 21 22 23 24 25 26 27 28 29 30 31 32 33 34 35 36 37 38 39 40 41 42 43 44 45 46 47 48 49 50
000
ASUS42 KRAH 241410
RWRRAH
NORTH CAROLINA WEATHER ROUNDUP
NATIONAL WEATHER SERVICE RALEIGH NC
1000 AM EDT SAT JUN 24 2017

NOTE: "FAIR" INDICATES FEW OR NO CLOUDS BELOW 12,000 FEET WITH NO
SIGNIFICANT WEATHER AND/OR OBSTRUCTIONS TO VISIBILITY.

NCZ001-053-055-056-065-067-241500-
WESTERN NORTH CAROLINA

CITY           SKY/WX    TMP DP  RH WIND       PRES   REMARKS
ASHEVILLE      MOSUNNY   76  66  71 CALM      30.04S
JEFFERSON      CLOUDY    69  61  76 W15G23    30.06R
HICKORY        SUNNY     79  70  74 SW5       29.97S
RUTHERFORDTON  NOT AVBL
MOUNT AIRY     SUNNY     77  65  66 CALM      29.99S
BOONE          NOT AVBL
$$

NCZ021-022-025-041-071-084-088-241500-
CENTRAL NORTH CAROLINA

CITY           SKY/WX    TMP DP  RH WIND       PRES   REMARKS
CHARLOTTE      CLOUDY    78  71  79 SW7       29.98S
GREENSBORO     MOSUNNY   80  70  71 W8        29.95S
WINSTON-SALEM  SUNNY     80  65  59 CALM      29.97R
RALEIGH-DURHAM MOSUNNY   83  73  72 W9        29.94S
FORT BRAGG     MOSUNNY   83  73  71 W10       29.93S
FAYETTEVILLE   PTSUNNY   86  75  69 W18       29.94S HX  95
BURLINGTON     SUNNY     83  72  69 SW6       29.94S
LAURINBURG     PTSUNNY   86  75  69 W15       29.96S HX  95
$$

NCZ011-015-027-028-043-044-047-080-103-241500-
NORTHEASTERN NORTH CAROLINA

CITY           SKY/WX    TMP DP  RH WIND       PRES   REMARKS
ROCKY MT-WILSO PTSUNNY   84  74  71 W10       29.92S
GREENVILLE     PTSUNNY   82  73  74 W7G24     29.94S
WASHINGTON     PTSUNNY  N/A N/A N/A W14       29.92S
ELIZABETH CITY CLOUDY    83  74  74 W15G23    29.88R
MANTEO         CLOUDY    83  74  75 W18G24    29.90R
CAPE HATTERAS  SUNNY     82  75  79 SW21G29   29.93R
$$

NCZ078-087-090-091-093-098-101-241500-
SOUTHEASTERN NORTH CAROLINA

CITY           SKY/WX    TMP DP  RH WIND       PRES   REMARKS
LUMBERTON      CLOUDY    83  74  74 W15       29.96R
GOLDSBORO      MOSUNNY   84  79  84 W14       29.92  HX  96
KINSTON        PTSUNNY   82  73  74 W7G16     29.94R
KENANSVILLE    CLOUDY    84  75  74 W10G20    29.94S
NEW BERN       MOSUNNY   85  75  72 SW13G24   29.94S
CHERRY POINT   PTSUNNY   86  74  67 SW17      29.95R
BEAUFORT       CLOUDY    84  79  85 SW22G30   29.95R HX  96
JACKSONVILLE   MOSUNNY   85  75  72 W13G20    29.94R
WILMINGTON     MOSUNNY   86  75  69 W14G24    29.96S HX  95
$$




USA.gov is the U.S. government's official web portal to all federal, state and local government web resources and services.